Home   Weather   Salem   Past weeks
Flag for USA

Past Weather in Salem, Oregon, USA — Yesterday and Last 2 Weeks

Now
57 °F

Overcast.


Feels Like: 57 °F
Forecast: 74 / 57 °F
Wind: 3 mph from South

Location: McNary Field

Current Time: Jul 17, 2019 at 4:16:32 am

Latest Report: Jul 17, 2019 at 3:10 am


Visibility: 10 mi

Pressure: 30.01 "Hg

Humidity: 87%

Dew Point: 53 °F

Location of SalemLocation

Past Weather in Salem — Graph

°F

Salem Temperature Yesterday

Maximum temperature yesterday: 80 °F (at 2:56 pm)
Minimum temperature yesterday: 61 °F (at 2:56 am)
Average temperature yesterday: 68 °F

High & Low Weather Summary for the Past Weeks

 TemperatureHumidityPressure
High85 °F (Jul 14, 4:56 pm)97% (Jul 10, 12:56 am)30.15 "Hg (Jul 10, 12:56 am)
Low52 °F (Jul 4, 5:56 am)29% (Jul 14, 4:56 pm)29.90 "Hg (Jul 8, 6:56 pm)
Average66 °F65%30.04 "Hg
* Reported Jul 2 3:56 am — Jul 17 3:10 am, Salem. Weather by CustomWeather, © 2019

Note: Actual official high and low records may vary slightly from our data, if they occured in-between our weather recording intervals... More about our weather records

Advertising

Salem Weather History for the Previous 24 Hours

Scroll right to see more
 ConditionsComfort  
Time TempWeatherWind HumidityBarometerVisibility
3:10 am
Wed, Jul 17
57 °FOvercast.3 mph87%30.01 "Hg10 mi
2:56 am58 °FMostly cloudy.No wind84%30.01 "Hg10 mi
2:35 am58 °FPassing clouds.No wind84%30.01 "Hg10 mi
1:56 am57 °FClear.5 mph87%29.99 "Hg10 mi
12:56 am58 °FPassing clouds.3 mph84%30.00 "Hg10 mi
11:56 pm
Tue, Jul 16
62 °FClear.6 mph75%30.00 "Hg10 mi
10:56 pm62 °FClear.7 mph73%30.00 "Hg10 mi
9:56 pm64 °FClear.6 mph65%29.99 "Hg10 mi
8:56 pm66 °FClear.9 mph59%29.99 "Hg10 mi
7:56 pm70 °FSunny.14 mph55%29.98 "Hg10 mi
6:56 pm73 °FSunny.12 mph50%29.96 "Hg10 mi
5:56 pm76 °FSunny.16 mph47%29.97 "Hg10 mi
4:56 pm79 °FSunny.14 mph45%29.96 "Hg10 mi
3:56 pm80 °FPartly sunny.12 mph44%29.96 "Hg10 mi
2:56 pm80 °FScattered clouds.8 mph38%29.97 "Hg10 mi
1:56 pm75 °FScattered clouds.No wind45%29.99 "Hg10 mi
12:56 pm76 °FBroken clouds.5 mph48%30.01 "Hg10 mi
11:56 am72 °FOvercast.5 mph55%30.02 "Hg10 mi
11:00 am70 °FOvercast.No wind59%30.03 "Hg10 mi
9:56 am68 °FPartly sunny.No wind65%30.02 "Hg10 mi
8:56 am66 °FPartly sunny.5 mph70%30.03 "Hg10 mi
7:56 am64 °FScattered clouds.7 mph75%30.03 "Hg10 mi
6:56 am62 °FOvercast.3 mph80%30.03 "Hg10 mi
5:56 am61 °FOvercast.3 mph83%30.02 "Hg10 mi
4:56 am61 °FOvercast.3 mph83%30.02 "Hg10 mi
Weather by CustomWeather, © 2019

See weather overview